Los Alamos, NM

9:13 PM MDT on September 19, 2017 (GMT -0600)
Los Alamos

Weather History for KLAM - October, 2013

Change the Weather History Date:

Monday, October 14, 2013

  Actual Average Record
Temperature  
Mean Temperature 50 °F -  
Max Temperature 57 °F 62 °F 80 °F (1950)
Min Temperature 44 °F 37 °F 26 °F (1986)
Degree Days  
Heating Degree Days 14    
Moisture  
Dew Point 26 °F    
Average Humidity 43    
Maximum Humidity 99    
Minimum Humidity 18    
Precipitation  
Precipitation 0.00 in - - ()
Sea Level Pressure  
Sea Level Pressure 30.14 in    
Wind  
Wind Speed 11 mph (WSW)    
Max Wind Speed 20 mph    
Max Gust Speed 28 mph    
Visibility 10 miles    
Events Rain    
Averages and records for this station are not official NWS values.
T = Trace of Precipitation, MM = Missing Value Source: NWS Daily Summary

Daily Weather History Graph

Daily Weather History Graph

Search for Another Location

Airport or City:

Trip Planner

Search our weather history database for the weather conditions in past years. The results will help you decide how hot, cold, wet, or windy it might be!

Date:

Astronomy

Oct. 14, 2013 Rise Set
Actual Time 7:11 AM MDT 6:30 PM MDT
Civil Twilight 6:45 AM MDT 6:56 PM MDT
Nautical Twilight 6:15 AM MDT 7:25 PM MDT
Astronomical Twilight 5:46 AM MDT 7:55 PM MDT
Moon 3:54 PM MDT (10/14) 2:39 AM MDT (10/14)
Length of Visible Light 12h 10m
Length of Day
11h 19m
Waxing Gibbous, 80% of the Moon is Illuminated
Oct 14
Waxing Gibbous
Oct 18
Full
Oct 26
Last Quarter
Nov 3
New
Nov 9
First Quarter

Hourly Weather History & Observations

Time (MDT) Temp. Windchill Dew Point Humidity Pressure Visibility Wind Dir Wind Speed Gust Speed Precip Events Conditions
12:15 AM 51.8 °F - 50.0 °F 94% 30.15 in 10.0 mi South 8.1 mph - N/A   Overcast
12:35 AM 51.4 °F - 50.4 °F 96% 30.14 in 10.0 mi South 6.9 mph - N/A Rain Light Rain
12:55 AM 50.9 °F - 50.2 °F 97% 30.14 in 10.0 mi South 6.9 mph - N/A   Mostly Cloudy
1:15 AM 50.5 °F - 50.0 °F 98% 30.13 in 10.0 mi South 9.2 mph - N/A   Scattered Clouds
1:35 AM 50.9 °F - 49.6 °F 95% 30.13 in 10.0 mi South 11.5 mph 16.1 mph N/A   Scattered Clouds
1:55 AM 50.5 °F - 50.0 °F 98% 30.13 in 10.0 mi South 9.2 mph - N/A   Mostly Cloudy
2:15 AM 50.4 °F - 50.0 °F 99% 30.12 in 10.0 mi South 8.1 mph - N/A   Overcast
2:35 AM 50.2 °F - 50.0 °F 99% 30.12 in 7.0 mi South 8.1 mph - N/A   Overcast
2:55 AM 49.5 °F - 49.3 °F 99% 30.11 in 7.0 mi SSW 8.1 mph - N/A   Mostly Cloudy
3:15 AM 49.5 °F - 48.2 °F 95% 30.11 in 10.0 mi SSW 8.1 mph - N/A   Scattered Clouds
3:35 AM 50.7 °F - 46.0 °F 84% 30.10 in 10.0 mi SSW 11.5 mph - N/A   Scattered Clouds
3:55 AM 51.1 °F - 44.1 °F 77% 30.10 in 10.0 mi SSW 9.2 mph - N/A   Scattered Clouds
4:15 AM 50.9 °F - 42.8 °F 74% 30.10 in 10.0 mi South 9.2 mph - N/A   Clear
4:35 AM 50.7 °F - 35.6 °F 56% 30.11 in 10.0 mi SSW 8.1 mph - N/A   Clear
4:55 AM 50.4 °F - 32.9 °F 51% 30.11 in 10.0 mi WSW 9.2 mph 19.6 mph N/A   Clear
5:15 AM 50.0 °F - 32.0 °F 50% 30.11 in 10.0 mi WSW 11.5 mph - N/A   Clear
5:35 AM 49.3 °F - 31.3 °F 50% 30.11 in 10.0 mi WSW 18.4 mph 27.6 mph N/A   Clear
5:55 AM 48.6 °F - 31.1 °F 51% 30.12 in 10.0 mi WSW 11.5 mph 18.4 mph N/A   Clear
6:15 AM 48.4 °F - 30.9 °F 51% 30.12 in 10.0 mi SW 13.8 mph 21.9 mph N/A   Clear
6:35 AM 48.4 °F - 30.0 °F 49% 30.13 in 10.0 mi SW 15.0 mph 21.9 mph N/A   Clear
6:55 AM 48.4 °F - 29.5 °F 48% 30.14 in 10.0 mi WSW 16.1 mph 23.0 mph N/A   Clear
7:15 AM 48.4 °F - 28.6 °F 46% 30.14 in 10.0 mi SW 16.1 mph 24.2 mph N/A   Clear
7:35 AM 48.6 °F - 27.1 °F 43% 30.14 in 10.0 mi SW 15.0 mph 21.9 mph N/A   Clear
7:55 AM 48.6 °F - 27.0 °F 43% 30.15 in 10.0 mi SW 11.5 mph 20.7 mph N/A   Clear
8:15 AM 48.7 °F - 27.0 °F 43% 30.15 in 10.0 mi SW 17.3 mph 24.2 mph N/A   Clear
8:35 AM 49.1 °F - 26.6 °F 42% 30.15 in 10.0 mi SW 19.6 mph 27.6 mph N/A   Clear
8:55 AM 49.5 °F - 26.8 °F 41% 30.15 in 10.0 mi SW 11.5 mph 19.6 mph N/A   Clear
9:15 AM 50.0 °F - 26.4 °F 40% 30.16 in 10.0 mi SW 12.7 mph 25.3 mph N/A   Clear
9:35 AM 50.2 °F - 25.9 °F 39% 30.16 in 10.0 mi SW 16.1 mph 24.2 mph N/A   Clear
9:55 AM 50.9 °F - 26.2 °F 38% 30.17 in 10.0 mi WSW 19.6 mph 24.2 mph N/A   Clear
10:15 AM 51.4 °F - 25.0 °F 36% 30.16 in 10.0 mi WSW 13.8 mph 25.3 mph N/A   Clear
10:35 AM 50.9 °F - 24.1 °F 35% 30.16 in 10.0 mi SW 11.5 mph 20.7 mph N/A   Clear
10:55 AM 52.7 °F - 23.2 °F 32% 30.16 in 10.0 mi WSW 18.4 mph - N/A   Clear
11:15 AM 52.3 °F - 23.0 °F 32% 30.16 in 10.0 mi WSW 13.8 mph 20.7 mph N/A   Clear
11:35 AM 53.1 °F - 23.9 °F 32% 30.15 in 10.0 mi SW 10.4 mph 18.4 mph N/A   Clear
11:55 AM 53.8 °F - 23.9 °F 31% 30.15 in 10.0 mi WSW 11.5 mph 17.3 mph N/A   Scattered Clouds
12:15 PM 54.3 °F - 22.3 °F 29% 30.14 in 10.0 mi SW 17.3 mph 20.7 mph N/A   Scattered Clouds
12:35 PM 54.5 °F - 21.4 °F 28% 30.14 in 10.0 mi SSW 11.5 mph 18.4 mph N/A   Scattered Clouds
12:55 PM 54.9 °F - 19.2 °F 25% 30.13 in 10.0 mi WSW 17.3 mph 26.5 mph N/A   Clear
1:15 PM 55.6 °F - 20.1 °F 25% 30.13 in 10.0 mi SW 17.3 mph 21.9 mph N/A   Clear
1:35 PM 55.9 °F - 20.1 °F 25% 30.12 in 10.0 mi SW 13.8 mph 20.7 mph N/A   Clear
1:55 PM 55.8 °F - 18.7 °F 23% 30.11 in 10.0 mi West 18.4 mph 25.3 mph N/A   Clear
2:15 PM 56.1 °F - 18.5 °F 23% 30.11 in 10.0 mi WSW 15.0 mph 23.0 mph N/A   Clear
2:35 PM 56.3 °F - 17.1 °F 22% 30.11 in 10.0 mi SW 16.1 mph 21.9 mph N/A   Clear
2:55 PM 56.3 °F - 17.1 °F 22% 30.11 in 10.0 mi SW 11.5 mph 23.0 mph N/A   Clear
3:15 PM 56.3 °F - 15.6 °F 20% 30.11 in 10.0 mi WSW 18.4 mph 25.3 mph N/A   Clear
3:35 PM 57.0 °F - 15.6 °F 20% 30.11 in 10.0 mi West 15.0 mph 24.2 mph N/A   Clear
3:55 PM 56.3 °F - 13.5 °F 18% 30.12 in 10.0 mi WSW 13.8 mph 25.3 mph N/A   Clear
4:15 PM 56.3 °F - 14.2 °F 19% 30.12 in 10.0 mi SW 9.2 mph - N/A   Clear
4:35 PM 54.9 °F - 15.6 °F 21% 30.12 in 10.0 mi West 11.5 mph 17.3 mph N/A   Clear
4:55 PM 56.5 °F - 14.0 °F 19% 30.12 in 10.0 mi WSW 13.8 mph 23.0 mph N/A   Clear
5:15 PM 55.4 °F - 12.2 °F 18% 30.13 in 10.0 mi SW 15.0 mph 23.0 mph N/A   Clear
5:35 PM 54.5 °F - 13.3 °F 20% 30.13 in 10.0 mi West 13.8 mph - N/A   Clear
5:55 PM 53.2 °F - 11.1 °F 19% 30.13 in 10.0 mi West 6.9 mph - N/A   Clear
6:15 PM 53.4 °F - 12.9 °F 20% 30.14 in 10.0 mi WSW 9.2 mph - N/A   Clear
6:35 PM 52.2 °F - 13.8 °F 22% 30.15 in 10.0 mi WSW 9.2 mph - N/A   Clear
6:55 PM 51.1 °F - 13.5 °F 22% 30.16 in 10.0 mi West 11.5 mph 16.1 mph N/A   Clear
7:15 PM 50.9 °F - 12.7 °F 22% 30.17 in 10.0 mi West 8.1 mph - N/A   Clear
7:35 PM 50.0 °F - 15.1 °F 25% 30.17 in 10.0 mi WNW 6.9 mph - N/A   Clear
7:55 PM 49.6 °F - 15.6 °F 26% 30.17 in 10.0 mi West 8.1 mph - N/A   Clear
8:15 PM 49.1 °F - 15.3 °F 26% 30.17 in 10.0 mi NW 9.2 mph - N/A   Clear
8:35 PM 48.7 °F - 15.3 °F 26% 30.17 in 10.0 mi NW 6.9 mph - N/A   Clear
8:55 PM 49.6 °F - 14.2 °F 24% 30.17 in 10.0 mi NNW 6.9 mph - N/A   Clear
9:15 PM 48.6 °F - 14.7 °F 26% 30.18 in 10.0 mi NNE 8.1 mph - N/A   Clear
9:35 PM 46.9 °F - 16.0 °F 29% 30.18 in 10.0 mi NW 3.5 mph - N/A   Clear
9:55 PM 47.3 °F - 16.3 °F 29% 30.18 in 10.0 mi NW 4.6 mph - N/A   Clear
10:15 PM 45.5 °F 43.2 °F 18.1 °F 34% 30.18 in 10.0 mi NNE 4.6 mph - N/A   Clear
10:35 PM 45.0 °F 39.7 °F 19.2 °F 36% 30.17 in 10.0 mi North 10.4 mph - N/A   Clear
10:55 PM 44.8 °F 41.6 °F 19.8 °F 37% 30.18 in 10.0 mi East 5.8 mph - N/A   Clear
11:15 PM 45.0 °F 40.1 °F 21.0 °F 39% 30.17 in 10.0 mi North 9.2 mph - N/A   Clear
11:35 PM 44.4 °F 42.9 °F 21.4 °F 40% 30.18 in 10.0 mi ENE 3.5 mph 16.1 mph N/A   Clear
11:55 PM 44.6 °F 40.7 °F 21.7 °F 40% 30.18 in 10.0 mi North 6.9 mph - N/A   Clear